Location: eljas
(40.1958°N, 6.8661°W)
Time: 19:10:28
(UTC+02:00)

Daily predictions for brighter satellites

Satellite Brightness Start Highest point End
(mag) Time Altitude Azimuth Time Altitude Azimuth Time Altitude Azimuth
BREEZE-M DEB (TANK) 3.6 21:20:31 10° SW 21:24:17 73° SE 21:37:52 10° ENE
In-Cosmos 22 Rocket 4.1 21:31:59 10° N 21:37:27 70° E 21:42:46 10° SSE
SL-24 R/B - RUBIN 2 3.6 21:35:36 10° NNW 21:39:56 62° NE 21:44:15 10° SE
Thor Agena Rocket 3.9 21:35:40 10° NNE 21:40:44 47° E 21:45:47 10° S
Cosmos 2221 3.4 21:38:45 10° SSW 21:42:55 54° W 21:47:07 10° N
Cosmos 2154 Rocket 4.1 21:37:12 10° SSE 21:43:18 56° E 21:49:22 10° NNE
NOSS 2-1 (E) 3.1 21:41:11 10° SSW 21:44:48 85° ESE 21:48:47 10° NE
Lacrosse 5 4.5 21:43:36 10° NNW 21:45:23 12° N 21:47:11 10° NNE
Cosmos 2184 Rocket 4.2 21:40:33 10° SSW 21:46:43 77° W 21:52:54 10° N
Meteor 2-15 4.5 21:43:20 10° N 21:49:27 68° E 21:55:31 10° SSE
Cosmos 2228 Rocket 4.3 21:46:27 10° SE 21:49:48 22° E 21:53:12 10° NE
OAO 2 Rocket 4.1 21:48:19 10° W 21:53:15 42° S 21:57:50 11° ESE
Spot 2 Rocket 4.3 21:49:17 10° SE 21:53:51 34° ENE 21:58:25 10° N
Timation 1 Rocket 4.4 21:48:15 10° NNW 21:54:14 70° ENE 22:00:10 10° SSE
Cosmos 1340 2.6 21:50:33 10° S 21:54:19 87° E 21:58:08 10° N
SL-16 R/B 3.9 21:56:35 11° ESE 21:57:51 11° E 21:59:39 10° ENE
NOSS 3-3 (A) 3.9 21:52:33 10° SSW 21:58:29 72° ESE 22:05:00 10° NE
NOSS 3-3 (C) 3.9 21:52:40 10° SSW 21:58:36 71° ESE 22:05:05 10° NE
Meteor 2-21 4.4 21:53:14 10° S 21:59:20 78° E 22:05:32 10° N
Cosmos 1805 Rocket 3.9 21:56:04 10° NNW 22:00:24 68° W 22:04:41 10° S
SL-8 R/B 3.9 21:59:49 10° SW 22:04:25 49° SE 22:09:03 10° ENE
Cosmos 1328 Rocket 3.8 22:00:50 10° SSE 22:05:03 48° E 22:09:20 10° NNE
Cosmos 2341 Rocket 4.1 22:00:06 10° S 22:06:18 58° E 22:12:29 10° NNE
Meteor 2-3 Rocket 3.9 22:01:18 10° N 22:06:49 56° ENE 22:12:20 10° SSE
Cosmos 1825 3.6 22:05:44 10° NNE 22:08:39 21° ENE 22:10:13 16° ESE
Cosmos 962 Rocket 4.5 22:02:50 10° S 22:08:51 63° E 22:14:56 10° NNE
ATLAS CENTAUR R/B 1.0 22:06:04 10° SSW 22:09:39 63° ESE 22:13:24 10° NE
NOSS 0 Rocket 4.0 22:04:24 10° S 22:10:20 53° ESE 22:16:21 10° NE
Resurs 01 Rocket 1.6 22:09:55 10° SSE 22:14:19 68° ENE 22:18:44 10° N
BREEZE-M DEB (TANK) 2.9 22:13:52 10° NW 22:18:16 49° NNE 22:19:37 22° E
Cosmos 1470 Rocket 3.9 22:14:14 10° N 22:18:29 45° E 22:21:44 16° SSE
Cosmos 1980 3.7 22:18:08 10° S 22:23:40 58° ESE 22:29:14 10° NNE
Cosmos 1939 Rocket 3.1 22:25:59 10° S 22:29:48 65° W 22:33:42 10° NNW
ERS-1 Rocket 4.3 22:30:09 19° E 22:31:54 22° ENE 22:35:44 10° NNE
SL-8 Rocket 4.0 22:26:18 10° S 22:32:28 60° E 22:38:39 10° NNE
Cosmos 2333 Rocket 2.5 22:28:21 10° SSW 22:34:00 73° WNW 22:39:40 10° NNE
Cosmos 1869 3.8 22:33:18 26° SE 22:34:58 38° E 22:38:42 10° NNE
Aureole 2 4.1 22:32:38 10° SSW 22:35:41 76° WNW 22:38:38 10° NNE
Meteor 1-27 4.4 22:30:15 10° SSW 22:36:00 79° W 22:41:42 10° N
H-2A R/B 3.1 22:34:41 22° E 22:36:27 27° ENE 22:40:34 10° NNE
Cosmos 1844 Rocket 3.8 22:33:48 10° NW 22:39:05 41° WSW 22:44:21 10° S
COSMOS 2428 4.2 22:34:00 10° SW 22:39:21 40° WNW 22:44:44 10° N
Cosmos 1371 Rocket 4.2 22:35:16 10° S 22:40:21 49° ESE 22:45:29 10° NNE
Cosmos 1933 Rocket 3.4 22:42:44 10° N 22:47:08 79° E 22:49:32 26° SSE
Cosmos 220 Rocket 4.3 22:43:31 10° NNW 22:47:49 62° WSW 22:50:34 21° S
Resurs 1-3 4.5 22:44:00 10° S 22:48:14 48° W 22:52:29 10° NNW
TRAILBLAZER 4.5 22:44:28 10° SSW 22:48:59 70° ESE 22:53:38 10° NE
Cosmos 2219 Rocket 3.3 22:44:04 10° SW 22:49:30 46° WNW 22:54:56 10° NNE
MetOp-A 4.5 22:47:18 29° SE 22:49:37 47° ENE 22:54:44 10° N
Cosmos 1151 Rocket 3.0 22:46:38 10° S 22:50:53 78° W 22:55:10 10° N
Cosmos 2237 Rocket 2.1 22:45:27 10° SSW 22:51:04 90° ESE 22:56:44 10° NNE
Cosmos 1408 2.5 22:49:55 10° N 22:53:36 90° SW 22:54:53 39° S
Cosmos 1455 4.0 22:53:39 10° SW 22:57:06 32° WNW 23:00:36 10° NNW
Cosmos 2278 Rocket 2.2 22:55:37 10° NNW 23:01:19 84° WSW 23:04:13 30° SSE
Cosmos 2056 Rocket 3.5 22:57:04 13° S 23:01:50 61° ESE 23:07:09 10° NNE
Cosmos 864 Rocket 4.3 22:58:38 14° S 23:04:03 76° E 23:10:11 10° N
Cosmos 2098 Rocket 2.9 23:05:35 27° S 23:08:06 83° E 23:12:00 10° N
Cosmos 1869 Rocket 4.1 23:05:20 10° N 23:09:21 40° ENE 23:09:21 40° ENE
Terra 3.7 23:12:46 16° ENE 23:12:46 16° ENE 23:15:19 10° NNE
ATLAS 2AS CENTAUR R/B 3.3 23:05:20 10° NW 23:13:00 59° WSW 23:17:20 25° S
Helios 1A 3.7 23:18:48 38° ENE 23:18:48 38° ENE 23:22:19 10° N
Cosmos 1624 Rocket 3.9 23:13:53 11° SSW 23:18:52 89° WNW 23:24:05 10° NNE
Cosmos 1190 Rocket 3.9 23:17:50 10° NNW 23:23:08 71° ENE 23:24:02 58° SE
Cosmos 1862 3.8 23:19:16 10° N 23:22:36 48° NE 23:22:36 48° NE
Cosmos 1140 Rocket 4.2 23:22:07 10° N 23:26:56 37° ENE 23:27:02 37° ENE
Cosmos 405 Rocket 3.7 23:29:41 37° NNE 23:29:41 37° NNE 23:32:13 10° NNE
Lacrosse 5 4.2 23:27:17 10° NNW 23:30:23 16° NNE 23:32:59 11° NE
SPOT 5 3.3 23:30:52 44° NE 23:30:52 44° NE 23:34:44 10° N
Cosmos 1954 Rocket 4.4 23:31:04 10° N 23:36:02 46° ENE 23:36:02 46° ENE
Cosmos 405 3.9 23:32:58 10° NNW 23:35:36 46° NW 23:35:36 46° NW
GEOS 3 Rocket 3.5 23:33:07 10° NE 23:38:31 79° SE 23:40:50 35° SSW
SL-16 R/B 2.1 23:38:14 31° SSW 23:41:06 87° WNW 23:46:48 10° NNE
Cosmos 1727 Rocket 4.1 23:35:32 10° NNW 23:41:41 71° W 23:43:56 40° SSW
NOSS 3-4 (A) 3.8 23:36:27 10° NNW 23:43:34 80° ENE 23:45:32 53° SE
NOSS 3-4 (C) 3.8 23:36:33 10° NNW 23:43:40 80° NE 23:45:37 53° SE
Cosmos 1821 Rocket 4.0 23:43:47 56° ESE 23:44:07 57° E 23:50:18 10° NNE
Cosmos 1825 4.2 23:41:07 10° NW 23:44:08 23° W 23:45:07 20° WSW
ARGOS 3.6 23:43:45 41° SSW 23:45:18 55° W 23:50:34 10° NNW
MetOp-B 4.5 23:47:04 47° SSW 23:48:16 59° W 23:53:34 10° NNW
Cosmos 1943 Rocket 4.1 23:46:28 10° NNE 23:49:40 15° NE 23:50:03 15° NE
USA 267 3.1 23:45:57 10° NE 23:52:30 70° SE 23:59:01 10° SW
